Rolla, ND

2:51 AM CDT on June 25, 2017 (GMT -0500)
Rolla

Weather History for K06D - January, 2013

Change the Weather History Date:

Tuesday, January 1, 2013

  Actual Average (KRUG) Record (KRUG)
Temperature  
Mean Temperature 12 °F -  
Max Temperature 26 °F 13 °F 43 °F (1990)
Min Temperature -2 °F -4 °F -31 °F (1982)
Degree Days  
Heating Degree Days 53    
Moisture  
Dew Point 11 °F    
Average Humidity 97    
Maximum Humidity 100    
Minimum Humidity 85    
Precipitation  
Precipitation 0.01 in - - ()
Sea Level Pressure  
Sea Level Pressure 29.88 in    
Wind  
Wind Speed 15 mph (WSW)    
Max Wind Speed 23 mph    
Max Gust Speed 23 mph    
Visibility 7 miles    
Events Snow    
Averages and records for this station are not official NWS values.
T = Trace of Precipitation, MM = Missing Value Source: NWS Daily Summary

Daily Weather History Graph

Daily Weather History Graph

Search for Another Location

Airport or City:

Trip Planner

Search our weather history database for the weather conditions in past years. The results will help you decide how hot, cold, wet, or windy it might be!

Date:

Astronomy

Jan. 01, 2013 Rise Set
Actual Time 8:32 AM CST 4:52 PM CST
Civil Twilight 7:55 AM CST 5:29 PM CST
Nautical Twilight 7:14 AM CST 6:09 PM CST
Astronomical Twilight 6:36 AM CST 6:48 PM CST
Moon 9:50 PM CST (1/1) 10:22 AM CST (1/1)
Length of Visible Light 9h 34m
Length of Day
8h 20m
Waning Gibbous, 83% of the Moon is Illuminated
Jan 1
Waning Gibbous
Jan 4
Last Quarter
Jan 11
New
Jan 18
First Quarter
Jan 26
Full

Hourly Weather History & Observations

Time (CST) Temp. Windchill Dew Point Humidity Pressure Visibility Wind Dir Wind Speed Gust Speed Precip Events Conditions
12:15 AM -2.2 °F -23.5 °F -4.0 °F 92% 30.07 in 1.2 mi WSW 17.3 mph - N/A Snow Light Snow
12:35 AM -0.4 °F -21.2 °F -2.2 °F 92% 30.05 in 3.0 mi WSW 17.3 mph - N/A   Overcast
1:15 AM 1.4 °F -17.6 °F -0.4 °F 92% 30.06 in 10.0 mi West 15.0 mph - N/A   Overcast
1:35 AM 3.2 °F -13.9 °F 1.4 °F 92% 30.06 in 10.0 mi West 12.7 mph - N/A   Overcast
1:55 AM 5.0 °F -10.0 °F 1.4 °F 85% 30.06 in 10.0 mi WSW 10.4 mph - N/A   Overcast
2:15 AM 5.0 °F -6.9 °F 3.2 °F 92% 30.06 in 10.0 mi SW 6.9 mph - N/A   Overcast
2:35 AM 5.0 °F -6.9 °F 1.4 °F 85% 30.05 in 10.0 mi South 6.9 mph - N/A   Overcast
3:15 AM 5.0 °F -6.9 °F 1.4 °F 85% 30.05 in 10.0 mi South 6.9 mph - N/A   Overcast
3:35 AM 5.0 °F -5.6 °F 1.4 °F 85% 30.04 in 10.0 mi SSW 5.8 mph - N/A   Overcast
4:15 AM 5.0 °F -9.1 °F 5.0 °F 100% 30.03 in 10.0 mi SW 9.2 mph - N/A   Overcast
4:35 AM 5.0 °F -12.3 °F 5.0 °F 100% 30.02 in 10.0 mi SW 13.8 mph - N/A   Overcast
4:55 AM 6.8 °F -9.3 °F 5.0 °F 92% 30.01 in 10.0 mi SW 12.7 mph - N/A   Overcast
5:15 AM 6.8 °F -9.3 °F 5.0 °F 92% 30.01 in 8.0 mi SW 12.7 mph - N/A   Overcast
5:35 AM 5.0 °F -6.9 °F 5.0 °F 100% 30.00 in 8.0 mi SSW 6.9 mph - N/A   Overcast
5:55 AM 6.8 °F -8.6 °F 5.0 °F 92% 29.99 in 10.0 mi SW 11.5 mph - N/A   Overcast
6:15 AM 5.0 °F -15.2 °F 5.0 °F 100% 29.97 in 3.0 mi WSW 19.6 mph - N/A   Overcast
6:35 AM 5.0 °F -14.2 °F 3.2 °F 92% 29.97 in 2.5 mi WSW 17.3 mph - N/A   Overcast
6:55 AM 5.0 °F -14.7 °F 3.2 °F 92% 29.96 in 7.0 mi SW 18.4 mph - N/A   Mostly Cloudy
7:15 AM 5.0 °F -14.2 °F 1.4 °F 85% 29.96 in 10.0 mi WSW 17.3 mph - N/A   Mostly Cloudy
7:35 AM 5.0 °F -14.7 °F 1.4 °F 85% 29.95 in 3.0 mi WSW 18.4 mph - N/A Snow Light Snow
7:55 AM 5.0 °F -16.2 °F 5.0 °F 100% 29.95 in 2.0 mi WSW 21.9 mph - N/A Snow Light Snow
8:15 AM 6.8 °F -13.8 °F 5.0 °F 92% 29.94 in 1.5 mi WSW 21.9 mph - N/A   Overcast
8:35 AM 6.8 °F -14.3 °F 6.8 °F 100% 29.93 in 3.0 mi WSW 23.0 mph - N/A   Mostly Cloudy
8:55 AM 6.8 °F -13.4 °F 6.8 °F 100% 29.93 in 2.5 mi WSW 20.7 mph - N/A   Partly Cloudy
9:15 AM 8.6 °F -11.4 °F 6.8 °F 92% 29.93 in 2.0 mi WSW 21.9 mph - N/A   Mostly Cloudy
9:35 AM 8.6 °F -11.0 °F 6.8 °F 92% 29.93 in 6.0 mi WSW 20.7 mph - N/A   Scattered Clouds
9:55 AM 6.8 °F -12.4 °F 6.8 °F 100% 29.93 in 5.0 mi WSW 18.4 mph - N/A   Mostly Cloudy
10:15 AM 6.8 °F -12.4 °F 6.8 °F 100% 29.92 in 6.0 mi WSW 18.4 mph - N/A   Overcast
10:35 AM 6.8 °F -10.7 °F 6.8 °F 100% 29.92 in 4.0 mi SW 15.0 mph - N/A Snow Light Snow
10:55 AM 8.6 °F -8.9 °F 6.8 °F 92% 29.92 in 2.5 mi SW 16.1 mph - N/A Snow Light Snow
11:15 AM 8.6 °F -8.3 °F 8.6 °F 100% 29.91 in 1.5 mi SW 15.0 mph - N/A   Overcast
11:35 AM 10.4 °F -7.2 °F 10.4 °F 100% 29.90 in 2.5 mi SW 17.3 mph 23.0 mph N/A   Overcast
11:55 AM 10.4 °F -7.7 °F 10.4 °F 100% 29.88 in 1.8 mi SW 18.4 mph - N/A   Overcast
12:15 PM 10.4 °F -8.2 °F 10.4 °F 100% 29.88 in 2.0 mi SW 19.6 mph - N/A   Overcast
12:35 PM 12.2 °F -4.8 °F 12.2 °F 100% 29.87 in 3.0 mi SW 17.3 mph 23.0 mph N/A   Overcast
1:15 PM 14.0 °F -3.4 °F 14.0 °F 100% 29.85 in 4.0 mi SW 19.6 mph - N/A   Mostly Cloudy
1:35 PM 15.8 °F -1.5 °F 15.8 °F 100% 29.83 in 7.0 mi SW 20.7 mph - N/A   Partly Cloudy
2:15 PM 14.0 °F -3.9 °F 14.0 °F 100% 29.81 in 6.0 mi WSW 20.7 mph - N/A   Clear
2:35 PM 15.8 °F -1.5 °F 14.0 °F 93% 29.80 in 3.0 mi WSW 20.7 mph - N/A   Clear
2:55 PM 14.0 °F -4.3 °F 14.0 °F 100% 29.79 in 10.0 mi WSW 21.9 mph - N/A   Scattered Clouds
3:15 PM 15.8 °F -1.5 °F 15.8 °F 100% 29.79 in 10.0 mi WSW 20.7 mph - N/A   Mostly Cloudy
3:35 PM 15.8 °F -1.9 °F 14.0 °F 93% 29.79 in 10.0 mi WSW 21.9 mph - N/A   Mostly Cloudy
4:15 PM 14.0 °F -3.9 °F 14.0 °F 100% 29.79 in 10.0 mi SW 20.7 mph - N/A   Overcast
4:35 PM 14.0 °F -4.3 °F 14.0 °F 100% 29.79 in 10.0 mi WSW 21.9 mph - N/A   Overcast
4:55 PM 15.8 °F -1.1 °F 15.8 °F 100% 29.79 in 2.5 mi WSW 19.6 mph - N/A Snow Light Snow
5:15 PM 15.8 °F 0.3 °F 15.8 °F 100% 29.80 in 9.0 mi WSW 16.1 mph - N/A   Mostly Cloudy
5:35 PM 17.6 °F 3.2 °F 15.8 °F 93% 29.80 in 10.0 mi WSW 15.0 mph - N/A   Overcast
5:55 PM 17.6 °F 1.7 °F 17.6 °F 100% 29.79 in 10.0 mi WSW 18.4 mph - N/A   Overcast
6:15 PM 19.4 °F 5.0 °F 17.6 °F 93% 29.79 in 10.0 mi WSW 16.1 mph - N/A   Overcast
6:35 PM 19.4 °F 8.6 °F 19.4 °F 100% 29.79 in 7.0 mi WSW 9.2 mph - N/A Snow Light Snow
6:55 PM 19.4 °F 7.2 °F 19.4 °F 100% 29.79 in 5.0 mi WSW 11.5 mph - 0.01 in Snow Light Snow
7:15 PM 19.4 °F 7.2 °F 19.4 °F 100% 29.78 in 7.0 mi WSW 11.5 mph - N/A Snow Light Snow
7:35 PM 19.4 °F 6.6 °F 19.4 °F 100% 29.78 in 10.0 mi WSW 12.7 mph - N/A   Overcast
7:55 PM 19.4 °F 6.6 °F 19.4 °F 100% 29.78 in 10.0 mi WSW 12.7 mph - N/A   Overcast
8:15 PM 19.4 °F 7.2 °F 19.4 °F 100% 29.77 in 10.0 mi WSW 11.5 mph - N/A   Overcast
8:35 PM 19.4 °F 6.0 °F 19.4 °F 100% 29.76 in 10.0 mi WSW 13.8 mph - N/A   Overcast
8:55 PM 21.2 °F 8.3 °F 21.2 °F 100% 29.75 in 10.0 mi WSW 13.8 mph - N/A   Overcast
9:15 PM 23.0 °F 11.7 °F 23.0 °F 100% 29.75 in 10.0 mi WSW 11.5 mph - N/A   Overcast
9:35 PM 23.0 °F 11.7 °F 23.0 °F 100% 29.75 in 10.0 mi WSW 11.5 mph - N/A   Overcast
9:55 PM 23.0 °F 13.1 °F 23.0 °F 100% 29.75 in 10.0 mi WSW 9.2 mph - N/A   Overcast
10:15 PM 26.6 °F 15.7 °F 26.6 °F 100% 29.75 in 10.0 mi West 12.7 mph - N/A   Overcast
10:35 PM 26.6 °F 15.7 °F 26.6 °F 100% 29.75 in 10.0 mi West 12.7 mph - N/A   Overcast
10:55 PM 26.6 °F 16.2 °F 26.6 °F 100% 29.75 in 10.0 mi West 11.5 mph - N/A   Overcast
11:15 PM 24.8 °F 14.0 °F 24.8 °F 100% 29.75 in 10.0 mi WSW 11.5 mph - N/A   Overcast
11:35 PM 24.8 °F 14.0 °F 24.8 °F 100% 29.74 in 10.0 mi SW 11.5 mph - N/A   Mostly Cloudy
11:55 PM 24.8 °F 14.6 °F 24.8 °F 100% 29.74 in 10.0 mi WSW 10.4 mph - N/A   Overcast